Retour au catalogue

COSMOS 1160

ActifMilitaireLEO
NORAD 11695·PAYLOAD·🇷🇺 Russia

Lancé Feb 11, 1980 depuis Plesetsk Cosmodrome

Loading…

Prochains Passages (prochaines 24 heures)

TLE

FraisSource: Space-Track

Époque: Sep 14, 2026, 13:55 UTC

1 11695U 80012E   26257.57996709 -.00000008  00000-0  55640-4 0  9990
2 11695  74.0205 296.7352 0012142 295.3019 218.4642 12.47777099122134

Suivez COSMOS 1160 en temps réel avec AllMySat

Download on the App Store